#timestamp,LO_Frequency,Hit,StdDev 
1615568415.3,286047009.1,N
1615568435.1,286047009.2,N
1615568455.8,286047008.6,N
1615568475.7,286047012.1,N
1615568495.5,286047013.4,N
1615568515.4,286047018.4,Y
1615568535.2,286047012.5,P
1615568555.0,286047013.5,P
1615568555.9,286047013.5,P
1615568575.8,286047011.1,N
1615568595.6,286047011.3,Y
1615568615.5,286047002.0,P
1615568635.3,286046996.6,N
1615568655.1,286046994.8,N
1615568675.9,286046989.4,N
1615568695.7,286046996.3,N
1615568715.6,286046993.0,N
1615568735.4,286046994.0,N
1615568755.2,286046994.1,N
1615568775.1,286046992.6,N
1615568776.0,286046992.6,N
1615568795.8,286046995.3,N
1615568815.6,286047003.0,N
1615568835.5,286047002.3,N
1615568855.3,286047001.6,N
1615568875.1,286047008.2,N
1615568895.9,286047007.7,N
1615568915.7,286047012.9,N
1615568935.6,286047011.6,N
1615568955.4,286047014.0,N
1615568975.2,286047019.5,N
1615568995.1,286047017.6,N
1615568996.0,286047017.6,N
1615569015.8,286047018.9,N
1615569035.6,286047022.7,N
1615569055.5,286047022.7,N
1615569075.3,286047021.4,N
1615569095.2,286047017.7,N
1615569115.9,286047014.1,N
1615569135.7,286047013.1,N
1615569155.6,286047013.0,N
1615569175.4,286047009.9,N
1615569195.2,286047007.7,N
1615569215.1,286047009.4,N
1615569216.0,286047009.4,N
1615569235.8,286047007.8,N
1615569255.7,286047012.6,N
1615569275.5,286047016.8,N
1615569295.3,286047018.7,N
1615569315.2,286047017.9,N
1615569335.0,286047015.0,N
1615569335.9,286047015.0,N
1615569355.7,286047011.8,N
1615569375.6,286047013.9,N
1615569395.4,286047013.9,N
1615569415.3,286047011.3,N
1615569435.1,286047014.2,Y
1615569455.8,286046996.7,P
1615569475.7,286047002.8,N
1615569495.5,286046998.3,N
1615569515.3,286047003.2,N
1615569535.2,286047000.7,N
1615569555.0,286047001.5,N
1615569555.9,286047001.5,N
1615569575.8,286047006.5,N
1615569595.6,286047005.0,N
1615569615.4,286047000.6,N
1615569635.3,286046998.2,N
1615569655.1,286046999.2,N
1615569675.9,286046993.8,N
1615569695.7,286046998.8,N
1615569715.5,286047000.8,N
1615569735.4,286046998.2,N
1615569755.2,286046997.1,N
1615569775.0,286046997.8,N
1615569776.0,286046997.8,N
1615569795.8,286047000.4,N
1615569815.6,286047001.9,N
1615569835.5,286046998.1,N
1615569855.3,286047002.4,N
1615569875.1,286047001.1,N
1615569895.9,286046998.8,N
1615569915.7,286046998.1,N
1615569935.5,286047003.9,N
1615569955.4,286047000.6,N
1615569975.2,286047002.4,N
1615569995.1,286046998.3,N
1615569996.0,286046998.3,N
1615570015.8,286047001.8,N
1615570035.6,286047006.4,N
1615570055.5,286047007.7,N
1615570075.3,286047012.9,Y
1615570095.2,286047018.4,P
1615570115.9,286047018.2,N
1615570135.7,286047017.9,N
1615570155.6,286047016.5,N
1615570175.4,286047012.6,N
1615570195.2,286047016.7,N
1615570215.1,286047016.1,N
1615570216.0,286047016.1,N
1615570235.8,286047013.2,N
1615570255.7,286047010.9,N
1615570275.5,286047012.1,N
1615570325.4,286047012.4,E
1615570335.3,286047004.8,N
1615570355.1,286046996.3,P
1615570375.9,286046993.4,N
1615570395.7,286046994.9,N
1615570415.5,286046994.2,N
1615570435.4,286046987.1,Y
1615570455.2,286046996.9,P
1615570475.1,286047005.7,P
1615570476.0,286047005.7,N
1615570495.8,286046999.1,N
1615570515.6,286046993.3,N
1615570535.5,286046987.6,N
1615570555.3,286046990.0,N
1615570575.2,286046990.3,N
1615570595.9,286046993.9,N
1615570615.7,286046992.7,N
1615570635.6,286046989.7,N
1615570655.4,286046988.0,N
1615570675.2,286046989.5,N
1615570695.1,286046994.5,N
1615570696.0,286046994.5,N
1615570715.8,286046997.3,N
1615570735.7,286046991.8,N
1615570755.5,286046993.7,N
1615570775.3,286047000.6,N
1615570795.2,286047004.0,N
1615570815.0,286046998.1,N
1615570815.9,286046998.1,N
1615570835.8,286046999.5,N
1615570855.6,286047005.8,N
1615570875.4,286047012.0,N
1615570895.3,286047010.5,N
1615570915.1,286047011.1,N
1615570935.8,286047011.1,N
1615570955.7,286047004.1,N
1615570975.5,286047003.1,N
1615570995.3,286047000.3,N
1615571015.2,286047008.4,N
1615571035.0,286047011.7,N
1615571035.9,286047011.7,N
1615571055.8,286047003.1,N
1615571075.6,286047001.1,N
1615571095.4,286047000.3,N
1615571115.3,286046999.1,N
1615571135.1,286047008.4,N
1615571155.9,286047009.7,N
1615571175.7,286047011.2,N
1615571195.5,286047007.1,N
1615571215.4,286047003.1,N
1615571235.2,286047004.8,N
1615571255.0,286047012.3,N
1615571255.9,286047012.3,N
1615571275.8,286047014.9,N
1615571295.6,286047019.2,Y
1615571315.5,286047005.4,P
1615571335.3,286047005.4,P
1615571355.1,286047004.9,P
1615571375.9,286047001.0,Y
1615571395.7,286046997.0,P
1615571415.6,286047002.0,N
1615571435.4,286047003.1,N
1615571455.2,286047009.2,Y
1615571475.1,286047001.3,P
1615571476.0,286047001.3,P
1615571495.8,286047000.4,N
1615571515.6,286047000.9,N
1615571535.5,286047000.3,N
1615571555.3,286046999.2,N
1615571575.2,286047000.6,N
1615571595.9,286047004.0,Y
1615571615.7,286047002.9,P
1615571635.6,286047003.6,P
1615571655.4,286047008.6,P
1615571675.3,286047005.4,N
1615571695.1,286047009.7,Y
1615571696.0,286047009.7,P
1615571715.8,286047002.2,N
1615571735.7,286047005.8,N
1615571755.5,286047005.0,N
1615571775.3,286047004.3,N
1615571795.2,286046998.3,N
1615571815.0,286046993.8,N
1615571815.9,286046993.8,N
1615571835.8,286046993.3,N
1615571855.6,286046992.1,N
1615571875.4,286046990.4,N
1615571895.3,286046995.8,N
1615571915.1,286046995.9,N
1615571935.8,286046995.2,N
1615571955.7,286047011.9,N
1615571975.5,286047000.5,N
1615571995.4,286047004.0,N
